When you browse on this site, cookies collect data to enhance your experience and personalize the content and advertising you see.
Visit our Privacy Policy to learn more. By continuing to use the site, you agree to this use of cookies and data.
  • In Hungary
  • List of Countries
  • For 7 days
  • Water Temperature
  • Satellite Maps
  • Weather Map
  • News
  • Weather Widgets
  • user-avatar
    Login

    Hourly Weather Northampton

    Today, 17 January, Thursday

    Time Temperature Precipitation Wind Pressure Humidity
    00:00 +3°C° 0 mm 2 mps 742 mmHg 93%
    01:00 +2°C° 0.8 mm 3 mps 743 mmHg 92%
    02:00 +1°C° 0.8 mm 4 mps 743 mmHg 91%
    03:00 +1°C° 0.8 mm 4 mps 743 mmHg 90%
    04:00 +1°C° 0 mm 4 mps 743 mmHg 90%
    05:00 0°C° 0 mm 5 mps 744 mmHg 90%
    06:00 0°C° 0 mm 5 mps 745 mmHg 90%
    07:00 0°C° 0 mm 5 mps 746 mmHg 86%
    08:00 -1°C° 0 mm 5 mps 747 mmHg 81%
    09:00 -2°C° 0 mm 6 mps 748 mmHg 77%
    10:00 -1°C° 0 mm 6 mps 749 mmHg 73%
    11:00 -1°C° 0 mm 6 mps 749 mmHg 68%
    12:00 0°C° 0 mm 7 mps 750 mmHg 64%
    13:00 +1°C° 0 mm 6 mps 751 mmHg 64%
    14:00 +1°C° 0 mm 5 mps 751 mmHg 65%
    15:00 +1°C° 0 mm 5 mps 752 mmHg 66%
    16:00 0°C° 0 mm 4 mps 752 mmHg 69%
    17:00 -1°C° 0 mm 4 mps 753 mmHg 72%
    18:00 -2°C° 0 mm 4 mps 753 mmHg 74%
    19:00 -1°C° 0 mm 3 mps 754 mmHg 75%
    20:00 -1°C° 0 mm 3 mps 754 mmHg 75%
    21:00 -1°C° 0 mm 2 mps 754 mmHg 75%
    22:00 -1°C° 0 mm 2 mps 755 mmHg 74%
    23:00 -1°C° 0 mm 2 mps 755 mmHg 74%

    Tomorrow, 18 January, Friday

    Time Temperature Precipitation Wind Pressure Humidity
    00:00 -1°C° 0 mm 2 mps 755 mmHg 73%
    01:00 +1°C° 0 mm 1 mps 755 mmHg 73%
    02:00 +1°C° 0 mm 1 mps 755 mmHg 72%
    03:00 +1°C° 0 mm 1 mps 755 mmHg 72%
    04:00 +1°C° 0 mm 1 mps 755 mmHg 73%
    05:00 -2°C° 0 mm 2 mps 754 mmHg 74%
    06:00 -2°C° 0 mm 2 mps 754 mmHg 75%
    07:00 -2°C° 0 mm 2 mps 754 mmHg 75%
    08:00 -1°C° 0 mm 3 mps 754 mmHg 74%
    09:00 -1°C° 0 mm 3 mps 754 mmHg 73%
    10:00 -1°C° 0 mm 4 mps 754 mmHg 70%
    11:00 0°C° 0 mm 4 mps 753 mmHg 67%
    12:00 +2°C° 0 mm 5 mps 753 mmHg 64%
    13:00 +2°C° 0 mm 5 mps 753 mmHg 66%
    14:00 +2°C° 0 mm 5 mps 752 mmHg 67%
    15:00 +2°C° 0 mm 5 mps 751 mmHg 69%
    16:00 +2°C° 0 mm 5 mps 751 mmHg 70%
    17:00 +1°C° 0 mm 5 mps 751 mmHg 72%
    18:00 +1°C° 0 mm 5 mps 751 mmHg 73%
    19:00 +1°C° 0.1 mm 5 mps 750 mmHg 73%
    20:00 +1°C° 0.1 mm 5 mps 750 mmHg 74%
    21:00 +1°C° 0.1 mm 5 mps 750 mmHg 75%
    22:00 +1°C° 0.5 mm 5 mps 749 mmHg 78%
    23:00 +1°C° 0.5 mm 5 mps 749 mmHg 81%

    Day after tomorrow, 19 January, Saturday

    Time Temperature Precipitation Wind Pressure Humidity
    00:00 +1°C° 0.5 mm 6 mps 749 mmHg 85%
    01:00 +1°C° 0.2 mm 6 mps 748 mmHg 87%
    02:00 +1°C° 0.2 mm 6 mps 748 mmHg 89%
    03:00 +1°C° 0.2 mm 6 mps 748 mmHg 91%
    04:00 +1°C° 0.2 mm 6 mps 747 mmHg 92%
    05:00 +1°C° 0.2 mm 6 mps 747 mmHg 93%
    06:00 +2°C° 0.2 mm 6 mps 746 mmHg 93%
    07:00 +2°C° 0 mm 5 mps 746 mmHg 93%
    08:00 +2°C° 0 mm 5 mps 746 mmHg 93%
    09:00 +2°C° 0 mm 5 mps 746 mmHg 93%
    10:00 +2°C° 0 mm 5 mps 746 mmHg 93%
    11:00 +3°C° 0 mm 5 mps 746 mmHg 92%
    12:00 +5°C° 0 mm 5 mps 746 mmHg 91%
    13:00 +5°C° 0 mm 4 mps 746 mmHg 92%
    14:00 +5°C° 0 mm 3 mps 746 mmHg 92%
    15:00 +5°C° 0 mm 3 mps 746 mmHg 92%
    16:00 +4°C° 0 mm 3 mps 746 mmHg 94%
    17:00 +4°C° 0 mm 3 mps 746 mmHg 95%
    18:00 +4°C° 0 mm 2 mps 746 mmHg 96%
    19:00 +4°C° 0.1 mm 2 mps 746 mmHg 97%
    20:00 +4°C° 0.1 mm 2 mps 747 mmHg 97%
    21:00 +4°C° 0.1 mm 2 mps 747 mmHg 97%
    22:00 +4°C° 0 mm 2 mps 747 mmHg 96%
    23:00 +3°C° 0 mm 2 mps 747 mmHg 96%

    20 January, Sunday

    Time Temperature Precipitation Wind Pressure Humidity
    00:00 +3°C° 0 mm 2 mps 748 mmHg 96%
    01:00 +3°C° 0 mm 2 mps 748 mmHg 96%
    02:00 +2°C° 0 mm 2 mps 748 mmHg 96%
    03:00 +2°C° 0 mm 2 mps 748 mmHg 96%
    04:00 +2°C° 0 mm 2 mps 748 mmHg 96%
    05:00 +2°C° 0 mm 2 mps 748 mmHg 97%
    06:00 +2°C° 0 mm 2 mps 749 mmHg 97%
    07:00 +2°C° 0 mm 3 mps 749 mmHg 97%
    08:00 +2°C° 0 mm 3 mps 750 mmHg 97%
    09:00 +3°C° 0 mm 3 mps 751 mmHg 97%
    10:00 +4°C° 0.1 mm 4 mps 751 mmHg 95%
    11:00 +4°C° 0.1 mm 4 mps 752 mmHg 94%
    12:00 +5°C° 0.1 mm 5 mps 753 mmHg 92%
    13:00 +5°C° 0.1 mm 5 mps 753 mmHg 90%
    14:00 +3°C° 0.1 mm 5 mps 754 mmHg 89%
    15:00 +3°C° 0.1 mm 5 mps 754 mmHg 87%
    16:00 +2°C° 0 mm 5 mps 755 mmHg 86%
    17:00 +2°C° 0 mm 5 mps 756 mmHg 84%
    18:00 +1°C° 0 mm 5 mps 757 mmHg 83%
    19:00 0°C° 0 mm 4 mps 757 mmHg 83%
    20:00 -1°C° 0 mm 4 mps 758 mmHg 83%
    21:00 -1°C° 0 mm 4 mps 758 mmHg 82%
    22:00 -1°C° 0 mm 4 mps 759 mmHg 84%
    23:00 -1°C° 0 mm 4 mps 759 mmHg 85%

    21 January, Monday

    Time Temperature Precipitation Wind Pressure Humidity
    00:00 -1°C° 0 mm 4 mps 759 mmHg 86%
    01:00 -2°C° 0 mm 4 mps 759 mmHg 86%
    02:00 -2°C° 0 mm 4 mps 759 mmHg 86%
    03:00 -2°C° 0 mm 4 mps 759 mmHg 86%
    04:00 -2°C° 0 mm 4 mps 759 mmHg 87%
    05:00 -1°C° 0 mm 3 mps 759 mmHg 88%
    06:00 -2°C° 0 mm 3 mps 759 mmHg 88%
    07:00 -1°C° 0 mm 3 mps 759 mmHg 88%
    08:00 -1°C° 0 mm 3 mps 759 mmHg 88%
    09:00 -1°C° 0 mm 3 mps 759 mmHg 88%
    10:00 +1°C° 0 mm 2 mps 758 mmHg 85%
    11:00 +3°C° 0 mm 2 mps 757 mmHg 81%
    12:00 +4°C° 0 mm 2 mps 757 mmHg 78%
    13:00 +3°C° 0 mm 3 mps 756 mmHg 79%
    14:00 +3°C° 0 mm 3 mps 755 mmHg 79%
    15:00 +3°C° 0 mm 3 mps 754 mmHg 80%
    16:00 +1°C° 0 mm 4 mps 753 mmHg 82%
    17:00 +1°C° 0 mm 4 mps 751 mmHg 83%
    18:00 0°C° 0 mm 5 mps 750 mmHg 85%
    19:00 -1°C° 0.4 mm 6 mps 749 mmHg 85%
    20:00 +1°C° 0.4 mm 6 mps 747 mmHg 85%
    21:00 0°C° 0.4 mm 7 mps 746 mmHg 85%
    22:00 0°C° 1.2 mm 7 mps 745 mmHg 87%
    23:00 +1°C° 1.2 mm 8 mps 743 mmHg 89%

    22 January, Tuesday

    Time Temperature Precipitation Wind Pressure Humidity
    00:00 +1°C° 1.2 mm 8 mps 742 mmHg 91%
    01:00 +2°C° 1.2 mm 7 mps 742 mmHg 91%
    02:00 +1°C° 1.2 mm 5 mps 741 mmHg 91%
    03:00 +2°C° 1.2 mm 3 mps 741 mmHg 91%
    04:00 +1°C° 0.2 mm 3 mps 740 mmHg 91%
    05:00 +1°C° 0.2 mm 3 mps 740 mmHg 91%
    06:00 0°C° 0.2 mm 3 mps 740 mmHg 91%
    07:00 +1°C° 0.1 mm 3 mps 740 mmHg 92%
    08:00 +1°C° 0.1 mm 3 mps 740 mmHg 92%
    09:00 +1°C° 0.1 mm 3 mps 741 mmHg 92%
    10:00 +2°C° 0.1 mm 3 mps 741 mmHg 90%
    11:00 +2°C° 0.1 mm 3 mps 741 mmHg 88%
    12:00 +3°C° 0.1 mm 4 mps 741 mmHg 86%
    13:00 +3°C° 0.1 mm 3 mps 741 mmHg 87%
    14:00 +3°C° 0.1 mm 3 mps 741 mmHg 88%
    15:00 +4°C° 0.1 mm 2 mps 740 mmHg 89%
    16:00 +3°C° 0.1 mm 2 mps 741 mmHg 89%
    17:00 +3°C° 0.1 mm 2 mps 741 mmHg 90%
    18:00 +2°C° 0.1 mm 2 mps 741 mmHg 91%
    19:00 +2°C° 0.1 mm 2 mps 742 mmHg 93%
    20:00 +2°C° 0.1 mm 2 mps 742 mmHg 94%
    21:00 +2°C° 0.1 mm 2 mps 743 mmHg 95%
    22:00 +2°C° 0.1 mm 2 mps 743 mmHg 96%
    23:00 +2°C° 0.1 mm 2 mps 743 mmHg 97%
    Show more